Location: Elaine Barite Prospect
(34.1431°N, 106.7922°W)
Time: 05:33:04
(UTC+00:00)

PKM - Pass Details

Date: 13 December 2025
Orbit: 396 x 13730 km, 55.4° (Epoch: 12 January)

Event Time Altitude Azimuth Distance (km) Brightness Sun altitude
Exits shadow 12:11:13 38° 146° (SSE) 622 4.4 -22.7°
Drops below altitude 10° 12:13:04 10° 142° (SE) 1,513 6.7 -22.4°
Sets 12:15:17 0° 141° (SE) 2,664 8.1 -21.9°
